Wind_Speed
23 20 16 15 15 12 10 9 7 3 3 6 8 7 4 3 1 3 6 5 5 2 2 4 3 5 2 2 5 5 7 6 8 9 10 9 7 7 8 8 9 8 11
21 17 15 13 13 13 10 7 4 5 8 8 8 7 5 4 3 4 5 4 5 5 6 7 7 6 4 11 12 11 10 11 11 12 11 10 10 10 10 9 8 10 12
18 15 12 12 14 12 9 7 8 9 9 6 6 8 9 5 2 5 6 7 7 5 8 11 13 13 14 16 16 15 15 14 14 12 12 11 11 12 12 12 13 14 14
15 14 14 16 12 12 9 11 11 11 8 7 9 9 9 7 5 7 7 7 7 7 8 10 12 14 14 16 16 16 16 14 13 13 13 13 14 15 15 16 15 15 16
17 15 14 13 14 15 14 16 15 13 13 12 13 12 12 10 8 10 9 7 9 9 12 12 13 14 15 15 15 13 13 13 14 12 12 14 16 16 16 16 17 17 15
17 17 17 17 20 20 19 19 19 17 19 17 15 15 13 12 13 14 14 12 11 13 14 14 16 16 16 16 18 16 14 15 14 13 15 15 15 17 17 17 17 17 16
20 22 20 20 24 23 21 21 23 24 24 21 19 18 18 18 18 17 18 17 17 17 18 17 17 18 17 17 17 15 15 15 15 17 17 16 20 20 22 21 20 18 16
25 24 22 23 28 26 27 24 25 26 24 23 24 21 19 21 22 22 22 21 20 21 23 21 21 22 21 19 17 17 16 15 16 19 19 20 21 22 24 26 23 21 19
27 26 27 28 30 30 30 29 28 27 26 27 26 23 10 14 13 18 24 23 24 23 25 25 25 25 24 23 20 21 20 18 18 20 21 20 22 24 27 28 27 24 21
31 32 32 30 32 33 31 30 28 28 27 29 29 27 27 23 16 15 20 18 21 25 25 28 29 29 28 26 25 25 25 22 20 22 21 21 23 25 28 31 28 26 24
38 32 31 29 33 35 35 33 31 32 32 34 29 34 30 29 28 26 21 24 17 19 25 29 31 31 32 30 30 29 29 26 24 23 23 23 25 26 28 30 29 27 25
37 33 30 32 32 37 35 35 34 33 33 32 32 31 33 32 31 30 28 29 29 32 29 27 28 32 33 32 32 32 31 31 29 27 26 26 27 26 29 30 30 29 24
36 36 36 30 33 36 35 37 37 34 31 33 28 32 31 34 34 32 31 33 33 33 24 24 23 23 24 30 33 32 34 35 33 30 29 29 29 28 29 30 30 28 25
37 33 36 33 29 28 33 38 36 34 29 32 28 32 30 31 32 34 35 33 29 26 29 31 31 30 28 27 30 32 34 33 33 31 32 31 30 29 30 30 30 29 26
34 39 30 31 27 30 31 37 38 34 33 33 29 30 28 27 29 32 30 24 20 25 30 32 30 27 28 26 27 29 31 31 33 34 34 32 32 31 30 30 30 29 26
40 32 30 34 36 35 34 39 38 35 35 34 30 29 27 29 29 32 28 23 21 26 31 30 29 29 29 29 30 32 34 30 32 33 35 35 34 34 33 33 33 29 26
39 28 34 34 38 38 38 38 35 34 34 31 29 28 28 30 29 29 26 27 30 27 31 33 32 30 30 31 30 34 35 37 37 38 38 38 40 38 35 35 35 31 29
26 34 41 33 33 36 34 32 32 33 32 26 25 27 28 29 26 23 23 26 25 24 29 31 32 32 33 30 32 32 35 40 43 43 41 45 43 38 37 38 38 33 30
38 39 34 30 25 27 28 27 27 25 21 21 23 26 27 24 22 24 21 22 21 23 25 31 35 35 35 36 39 39 42 43 46 47 45 45 44 43 44 40 40 35 31
38 41 31 25 23 23 22 22 21 19 20 22 23 22 21 21 23 21 17 18 22 26 28 32 36 38 39 40 37 36 39 39 40 39 44 43 43 48 48 43 41 34 32
33 29 27 25 21 20 20 20 20 18 19 18 19 18 18 18 18 22 19 23 26 29 30 29 32 34 36 35 38 41 39 41 43 42 42 43 42 44 42 44 40 34 32
26 24 22 21 21 22 20 19 18 16 16 16 16 16 16 16 23 21 23 23 20 23 26 28 31 34 39 37 36 36 38 37 40 46 34 40 39 43 43 44 38 30 30
22 20 20 21 21 20 20 19 17 17 15 15 15 17 20 23 21 24 24 23 24 24 28 32 38 39 43 43 42 46 45 43 43 44 41 41 41 41 41 41 37 24 31
19 17 18 19 20 19 17 18 18 16 15 17 19 19 19 20 22 24 25 28 30 31 32 33 35 39 39 39 35 36 35 39 47 55 48 43 45 46 45 44 33 27 28
17 17 16 16 16 18 17 17 16 16 17 18 17 17 18 21 23 26 28 29 30 30 30 31 31 32 32 30 26 28 32 32 36 39 35 37 36 37 48 39 28 28 26
16 15 16 15 16 17 17 15 15 15 15 15 17 19 21 23 23 23 26 28 30 31 32 33 33 32 32 30 27 24 26 28 34 36 32 32 39 38 28 34 26 28 23
Wind_Direction
165 160 160 161 162 168 171 161 155 141 147 160 174 183 191 209 266 20 25 29 357 267 230 287 244 166 158 290 336 350 347 346 344 341 347 353 357 351 6 6 7 1 357
167 161 167 170 177 186 183 174 161 174 166 155 155 187 212 229 267 355 345 335 326 275 239 240 253 259 252 309 316 318 315 315 318 321 324 322 319 321 324 320 327 333 334
160 165 167 184 189 195 194 187 185 192 180 174 189 201 221 232 269 349 341 312 305 277 248 239 253 270 285 292 299 304 304 303 306 307 310 311 310 312 310 309 310 311 314
177 186 190 196 195 202 211 205 211 216 217 224 224 235 237 250 286 315 329 318 304 294 268 256 258 268 271 280 284 288 290 295 301 302 301 300 304 305 307 309 308 304 304
191 196 205 213 216 214 215 221 222 235 240 247 240 241 251 255 272 290 302 296 287 291 281 279 278 276 279 279 280 275 282 293 298 295 291 297 303 308 308 309 309 308 309
209 215 222 229 220 215 222 224 224 232 243 245 245 252 260 261 265 283 290 280 281 278 277 275 276 282 283 282 283 275 275 292 291 291 293 297 305 309 310 313 314 314 314
220 224 227 233 220 218 231 229 229 240 238 231 234 243 246 246 251 263 276 279 278 282 273 267 273 279 284 288 285 272 284 290 292 294 297 302 315 320 325 325 321 316 313
229 231 241 230 222 221 231 236 238 239 231 228 226 236 241 244 251 259 258 264 272 275 275 273 274 276 282 285 285 280 288 289 297 302 305 313 320 325 331 325 320 314 311
227 234 238 231 228 230 230 237 242 242 232 232 238 239 231 239 248 255 251 253 260 264 271 272 272 275 282 285 282 283 289 292 296 304 306 312 319 323 327 325 319 313 310
231 236 239 236 232 233 235 239 246 244 235 234 236 245 242 248 259 251 242 244 256 254 264 265 270 274 275 278 281 281 282 286 287 298 301 306 311 315 320 324 316 309 304
235 239 236 244 239 236 237 239 240 237 234 234 244 244 241 248 253 240 245 254 263 261 265 264 267 273 273 277 277 278 279 284 283 287 290 297 300 301 310 322 319 310 300
232 238 243 246 246 243 240 243 240 236 241 245 253 244 251 254 239 241 244 259 273 282 269 265 262 263 268 272 273 273 274 280 277 279 281 282 285 290 306 317 316 312 299
234 237 239 247 244 245 249 244 245 239 246 246 256 248 264 255 247 248 255 269 277 286 268 262 262 266 262 270 270 273 269 271 267 270 269 275 280 289 304 310 313 309 301
241 246 241 239 246 258 257 251 248 241 249 247 258 255 267 248 247 246 260 268 275 268 260 266 274 275 273 272 271 270 269 268 265 267 267 271 274 285 298 304 310 308 299
241 242 240 245 254 259 263 257 247 242 248 245 268 264 257 249 250 258 262 252 254 272 275 269 278 274 281 279 274 269 265 268 268 268 268 270 274 285 294 301 306 304 298
240 240 252 247 263 254 250 245 235 238 242 249 262 252 246 250 257 258 241 237 255 269 277 274 276 282 282 285 283 280 277 273 268 270 268 270 276 284 289 293 297 299 297
232 249 257 262 260 257 253 234 238 236 242 258 250 242 242 249 258 243 242 249 261 269 270 278 279 277 281 284 283 283 278 276 276 275 276 278 281 280 280 286 290 294 295
228 256 256 258 255 252 237 236 243 248 254 251 242 239 244 255 244 240 249 263 274 268 272 282 284 282 281 282 281 277 275 275 276 274 270 272 273 271 273 278 281 286 289
232 239 254 249 238 235 244 246 245 246 247 247 240 242 250 247 244 249 262 270 268 276 275 280 285 288 288 287 284 279 273 269 267 271 272 269 266 272 271 264 275 278 282
245 236 240 229 233 238 235 235 238 242 244 235 236 246 245 237 251 250 271 273 276 277 279 282 285 288 291 293 292 292 292 292 291 288 284 286 278 267 268 261 267 273 276
226 218 222 229 226 225 232 234 235 235 239 226 234 229 232 248 244 255 284 276 273 276 278 281 282 286 290 294 296 297 293 293 290 287 286 284 281 274 264 255 260 270 278
211 217 222 223 226 229 228 226 229 227 217 217 213 223 236 256 257 264 275 272 269 275 280 285 287 289 289 292 293 292 291 288 284 289 285 285 285 276 259 253 253 265 271
209 212 214 216 219 221 220 226 219 203 198 203 214 222 236 258 267 272 275 272 273 276 281 286 287 289 290 292 294 291 289 288 289 291 284 283 282 272 258 246 248 271 264
210 209 207 206 208 206 202 192 184 188 194 206 219 243 257 263 266 273 277 281 283 285 286 287 288 289 291 294 296 296 296 297 288 279 278 278 278 266 256 247 256 253 262
199 195 191 190 188 184 182 189 190 196 209 225 236 249 254 266 275 279 283 286 290 292 291 291 292 294 294 293 296 304 292 306 299 290 280 277 275 253 258 243 253 251 257
191 182 175 174 177 183 183 194 202 207 224 234 240 253 265 272 276 280 287 294 297 301 305 308 310 311 312 311 299 291 303 302 301 295 285 275 274 260 243 243 248 253 243
Height
1559 1562 1565 1568 1571 1574 1576 1577 1579 1581 1582 1583 1583 1585 1586 1587 1588 1588 1586 1587 1586 1588 1588 1588 1589 1588 1587 1586 1584 1582 1582 1583 1583 1582 1580 1577 1577 1576 1575 1575 1575 1574 1573
1559 1561 1565 1568 1571 1574 1576 1577 1578 1579 1581 1583 1584 1584 1585 1587 1588 1588 1587 1588 1588 1589 1588 1589 1589 1588 1588 1586 1584 1582 1581 1581 1581 1580 1580 1578 1576 1575 1574 1573 1572 1571 1570
1557 1560 1563 1567 1571 1573 1575 1576 1577 1578 1580 1581 1583 1584 1585 1586 1587 1586 1586 1587 1587 1588 1588 1587 1588 1587 1587 1585 1584 1583 1581 1579 1579 1577 1577 1577 1575 1574 1573 1571 1570 1568 1567
1554 1558 1562 1565 1569 1572 1573 1574 1575 1577 1578 1579 1581 1582 1584 1584 1585 1584 1584 1585 1584 1584 1585 1585 1585 1586 1584 1585 1583 1581 1581 1578 1576 1575 1575 1574 1573 1572 1571 1569 1567 1566 1564
1554 1557 1560 1563 1565 1568 1570 1572 1573 1574 1576 1577 1578 1579 1581 1582 1582 1581 1582 1583 1583 1582 1583 1583 1582 1583 1581 1581 1581 1579 1578 1577 1575 1573 1573 1572 1571 1570 1568 1566 1565 1563 1561
1553 1555 1558 1561 1562 1565 1568 1569 1571 1572 1573 1575 1576 1577 1578 1579 1578 1577 1578 1579 1579 1579 1580 1580 1580 1580 1579 1577 1578 1577 1575 1573 1573 1572 1571 1570 1569 1567 1566 1563 1561 1559 1558
1550 1553 1554 1559 1560 1561 1564 1565 1567 1569 1570 1572 1573 1573 1573 1575 1576 1575 1574 1575 1574 1574 1575 1576 1577 1577 1576 1574 1574 1574 1572 1570 1570 1569 1568 1567 1565 1563 1561 1558 1556 1555 1553
1548 1551 1552 1553 1555 1558 1560 1561 1563 1564 1566 1568 1570 1572 1572 1572 1571 1571 1572 1572 1572 1571 1569 1570 1571 1571 1571 1570 1570 1570 1568 1567 1566 1566 1564 1563 1561 1559 1557 1555 1552 1550 1548
1544 1545 1549 1550 1552 1553 1555 1557 1558 1560 1562 1565 1567 1569 1569 1568 1568 1567 1567 1568 1568 1567 1566 1565 1565 1566 1566 1565 1565 1565 1564 1564 1563 1562 1560 1559 1557 1556 1554 1551 1548 1546 1544
1538 1541 1544 1546 1548 1550 1550 1553 1554 1556 1559 1559 1562 1564 1562 1562 1561 1562 1563 1564 1564 1563 1562 1561 1561 1561 1562 1561 1560 1560 1559 1558 1557 1557 1555 1554 1554 1552 1550 1547 1544 1541 1539
1535 1537 1539 1541 1543 1544 1545 1547 1548 1549 1551 1551 1552 1555 1557 1556 1555 1556 1556 1557 1557 1558 1558 1557 1557 1556 1556 1556 1555 1555 1553 1552 1552 1551 1550 1550 1549 1548 1545 1542 1539 1536 1533
1530 1532 1535 1536 1538 1539 1539 1540 1542 1543 1545 1547 1548 1549 1551 1551 1548 1549 1550 1550 1550 1552 1552 1553 1552 1553 1552 1550 1549 1549 1548 1547 1546 1545 1545 1543 1543 1542 1540 1536 1533 1530 1527
1523 1524 1528 1529 1531 1532 1533 1534 1535 1537 1539 1541 1543 1543 1544 1544 1545 1545 1546 1546 1545 1546 1546 1546 1546 1546 1546 1544 1542 1541 1540 1540 1539 1539 1538 1536 1536 1535 1532 1530 1527 1524 1521
1519 1521 1521 1521 1525 1526 1528 1527 1528 1530 1534 1536 1537 1538 1537 1537 1539 1541 1541 1541 1539 1540 1539 1540 1539 1538 1538 1537 1535 1534 1534 1533 1533 1531 1530 1530 1529 1528 1527 1524 1521 1517 1514
1514 1513 1515 1517 1519 1519 1521 1522 1522 1526 1528 1529 1530 1530 1531 1532 1533 1535 1536 1534 1535 1534 1531 1532 1530 1531 1530 1530 1529 1528 1527 1526 1525 1524 1523 1523 1522 1520 1519 1516 1514 1510 1507
1508 1509 1508 1512 1511 1513 1511 1514 1516 1519 1521 1522 1522 1523 1525 1527 1528 1527 1527 1528 1529 1528 1523 1525 1524 1524 1524 1524 1523 1521 1519 1519 1518 1517 1515 1514 1513 1512 1510 1507 1506 1503 1501
1498 1501 1503 1503 1504 1506 1508 1509 1511 1513 1513 1514 1514 1517 1519 1521 1520 1521 1521 1522 1523 1523 1518 1517 1517 1518 1517 1517 1516 1514 1514 1511 1509 1508 1507 1506 1504 1502 1501 1500 1498 1496 1493
1494 1484 1492 1495 1496 1498 1502 1503 1504 1506 1506 1506 1508 1511 1514 1514 1515 1516 1517 1517 1517 1517 1514 1510 1510 1510 1510 1510 1509 1507 1505 1503 1500 1498 1497 1495 1493 1492 1491 1491 1489 1487 1485
1477 1484 1487 1487 1488 1493 1496 1497 1497 1499 1500 1502 1504 1506 1509 1510 1511 1511 1512 1512 1511 1510 1509 1505 1502 1502 1501 1501 1500 1499 1495 1494 1489 1487 1486 1484 1483 1482 1480 1479 1478 1477 1475
1478 1478 1481 1482 1484 1488 1490 1491 1492 1494 1495 1496 1498 1501 1504 1504 1505 1506 1507 1507 1506 1504 1502 1499 1496 1494 1493 1491 1489 1488 1483 1482 1477 1476 1475 1472 1471 1471 1470 1469 1468 1467 1466
1470 1472 1475 1478 1479 1483 1484 1485 1487 1488 1490 1491 1494 1497 1499 1500 1501 1501 1500 1500 1499 1497 1495 1492 1489 1486 1484 1483 1481 1478 1474 1472 1467 1465 1463 1461 1461 1459 1457 1458 1458 1459 1458
1465 1467 1469 1471 1474 1476 1477 1479 1481 1483 1484 1487 1491 1493 1495 1496 1495 1495 1495 1494 1493 1492 1489 1486 1484 1480 1477 1475 1472 1469 1465 1461 1454 1452 1451 1448 1449 1446 1446 1446 1447 1447 1452
1460 1462 1463 1466 1469 1471 1473 1475 1476 1478 1481 1485 1488 1489 1490 1490 1490 1489 1488 1488 1487 1485 1482 1478 1474 1473 1468 1467 1463 1458 1455 1452 1445 1442 1439 1436 1435 1433 1433 1436 1436 1437 1441
1454 1457 1460 1463 1465 1467 1469 1471 1473 1476 1479 1481 1483 1485 1485 1485 1483 1482 1482 1481 1479 1478 1474 1471 1466 1463 1460 1457 1455 1450 1444 1439 1432 1428 1430 1425 1425 1421 1424 1424 1426 1429 1431
1454 1456 1459 1461 1462 1464 1467 1469 1471 1474 1476 1478 1479 1480 1479 1477 1477 1476 1473 1471 1470 1469 1465 1462 1458 1454 1451 1449 1447 1441 1435 1431 1421 1415 1417 1416 1413 1411 1410 1414 1417 1421 1422
1450 1453 1455 1458 1461 1463 1465 1468 1470 1473 1474 1476 1476 1474 1474 1473 1471 1469 1467 1463 1460 1458 1454 1450 1446 1442 1439 1437 1435 1433 1427 1423 1417 1409 1408 1408 1405 1404 1403 1404 1409 1413 1414